GFSWCAN_925_rhum_144.txt.gz
RH
100 99 100 99 100 100 100 100 100 100 100 100 100 100 92 84 76 58 69 45 44 59 58 40 37 44 40 42 48 46 38 47 51 54 60 51 53 45 51 45 78 75 75 72 66 78 69 51 59 69 79 68 74 77
100 99 100 100 100 100 100 100 100 100 100 100 99 97 89 75 51 41 61 62 60 51 64 60 63 56 38 31 39 41 38 41 54 64 65 58 60 57 44 54 62 82 84 69 64 66 74 64 72 77 75 75 73 70
100 100 100 100 100 100 100 100 100 100 100 100 96 89 78 66 52 46 55 49 48 71 59 44 55 59 54 53 39 38 48 49 48 47 59 53 55 43 59 44 63 69 61 83 83 75 65 76 72 72 70 73 70 64
100 100 100 100 100 100 100 100 100 100 100 96 90 78 73 61 45 42 52 50 46 51 78 65 56 61 65 44 45 47 54 59 50 34 42 43 45 45 36 36 41 60 62 71 77 74 70 76 69 71 71 70 65 60
100 100 100 100 100 100 98 96 98 98 97 91 85 83 61 46 44 40 41 43 39 43 66 67 49 61 58 53 50 48 42 39 32 46 57 43 36 38 40 37 45 46 55 71 58 86 83 80 89 71 73 66 58 56
100 100 98 90 90 88 84 89 93 96 91 83 68 60 51 42 35 36 86 48 45 40 66 71 60 55 56 53 50 49 45 43 37 40 43 40 50 39 46 35 36 38 48 56 62 60 66 72 62 57 60 61 58 52
92 96 92 82 81 79 76 74 74 74 64 66 60 48 40 35 33 85 71 48 42 51 87 69 56 53 57 48 53 48 48 47 38 50 49 39 42 48 55 44 46 51 52 55 53 55 63 56 58 54 53 53 54 49
88 87 94 79 82 80 72 66 64 62 59 51 44 41 38 40 48 58 58 42 42 50 55 84 77 54 53 52 58 55 46 47 59 54 57 52 58 58 62 42 51 57 55 58 57 54 51 54 51 48 45 45 43 43
77 74 80 74 77 70 60 54 53 51 49 45 40 34 32 58 77 67 44 38 39 53 83 87 74 75 58 74 68 62 57 77 62 68 59 55 59 68 53 45 53 56 56 55 51 50 49 50 47 45 43 42 44 46
64 68 78 78 72 70 62 53 50 47 41 33 32 78 100 91 67 53 54 70 87 73 65 73 56 81 58 71 76 73 66 72 78 63 56 67 57 58 57 56 52 53 50 50 59 62 55 50 48 47 47 47 48 50
73 66 68 76 70 65 60 57 52 43 33 53 96 87 83 63 52 61 93 84 62 82 61 60 53 67 63 75 83 70 79 71 74 71 72 69 70 68 57 57 53 52 54 54 51 46 43 44 47 48 51 54 54 59
79 78 75 73 69 64 60 55 47 43 85 76 64 80 68 56 68 68 86 73 52 61 63 64 59 58 75 64 76 80 76 83 75 71 79 73 72 62 56 58 57 61 60 55 47 48 49 50 51 52 56 60 66 76
81 74 70 69 67 65 54 42 45 55 52 53 56 79 57 68 59 48 71 77 76 73 72 69 85 73 76 69 91 89 81 76 62 74 59 57 64 57 56 68 59 51 49 50 51 52 55 59 62 60 66 79 88 90
83 78 66 65 64 54 60 49 42 38 57 75 83 71 70 65 66 59 52 59 77 72 66 66 82 73 76 86 84 77 81 67 81 78 61 68 64 57 60 62 52 51 62 62 56 59 64 70 79 89 88 94 98 94
81 72 64 63 55 63 51 46 46 50 72 84 68 88 86 86 85 82 79 79 70 64 63 70 74 67 85 94 73 77 92 76 62 60 75 72 65 59 65 62 56 62 80 86 79 81 86 89 84 88 97 99 98 99
95 88 88 64 61 62 57 44 48 70 79 80 78 77 90 89 91 87 89 96 79 73 65 59 80 83 89 78 80 71 60 56 68 72 78 69 72 68 72 65 72 88 88 86 89 90 93 94 85 86 99 97 83 96
89 99 80 65 65 56 48 51 72 95 84 84 91 91 95 94 97 95 90 92 85 82 96 70 71 85 74 73 75 59 68 71 78 85 79 76 80 86 82 86 91 90 87 87 93 92 93 96 85 83 78 87 91 100
99 90 67 62 51 42 59 74 71 74 88 89 87 94 90 93 95 98 97 94 89 81 75 80 72 82 75 72 72 80 84 92 88 86 81 87 88 91 89 88 91 89 84 88 90 92 94 88 78 73 79 86 89 88
96 83 66 58 50 69 87 84 68 84 91 91 92 91 91 94 93 93 96 90 88 80 78 77 88 74 80 77 86 89 91 85 89 89 92 94 92 91 91 91 93 87 87 89 87 78 79 87 80 74 72 70 68 76
95 80 71 63 48 68 76 80 70 71 86 89 84 92 90 94 92 94 94 90 84 91 92 86 82 91 89 91 86 88 87 85 86 91 93 90 92 92 90 84 80 88 89 93 90 84 79 77 79 79 80 79 76 77
82 77 62 54 71 76 78 79 84 80 78 83 84 76 90 80 88 91 87 80 86 80 71 90 97 94 95 96 94 89 88 80 83 74 80 90 89 84 86 89 90 84 81 79 76 76 72 70 77 81 87 88 94 94
97 72 65 64 74 74 78 78 76 73 76 82 78 68 82 86 88 90 77 83 80 83 87 88 89 90 90 92 94 96 94 94 90 86 85 87 87 82 83 86 83 83 78 77 68 73 73 75 83 87 86 92 97 98
75 79 77 70 78 78 94 80 80 73 80 85 75 74 83 84 87 71 83 75 81 89 89 89 94 94 90 100 100 100 98 83 82 85 86 84 84 86 87 88 84 80 75 72 71 76 81 85 92 89 92 87 86 87
85 94 90 85 75 93 84 88 71 73 72 78 75 81 83 83 77 80 77 75 83 84 85 93 89 89 90 92 83 88 95 89 89 92 90 86 84 88 85 81 77 73 69 75 81 88 93 95 96 90 92 85 87 82
91 94 83 98 86 83 83 85 86 79 88 83 86 89 89 83 83 79 78 68 78 82 83 87 86 80 79 80 86 90 96 85 80 84 90 81 84 86 82 80 80 86 92 91 89 88 93 100 100 95 92 88 85 85
90 92 79 88 94 77 79 82 89 86 85 89 87 87 87 85 87 73 62 74 82 79 88 87 86 85 81 75 80 82 91 90 80 79 88 86 80 76 76 77 80 86 88 89 88 85 92 99 97 97 97 98 89 88
88 95 84 73 67 72 86 82 75 80 87 85 85 93 86 80 74 63 62 67 69 80 84 86 82 77 75 84 92 98 98 93 87 82 89 85 81 76 78 77 76 84 94 90 88 84 85 92 96 95 98 100 100 100
84 84 91 89 87 79 94 86 89 79 74 70 77 86 78 69 60 67 69 88 93 92 90 91 88 84 84 89 99 100 100 95 88 95 96 94 86 88 88 88 86 84 94 90 93 93 96 95 96 96 92 91 100 95
91 85 80 100 94 90 85 80 77 72 70 73 76 73 74 67 81 77 88 94 100 93 91 94 100 100 100 100 100 100 100 99 91 92 87 88 93 100 100 100 96 98 91 86 83 91 90 99 100 100 100 100 99 97
95 84 89 94 88 81 92 89 90 91 77 82 76 71 68 76 86 91 96 99 95 91 90 93 100 97 97 96 99 100 100 99 90 79 79 81 81 99 98 98 99 97 100 100 100 100 97 92 94 95 99 100 100 100
83 84 88 87 89 91 90 90 92 90 88 87 90 89 82 86 85 92 96 98 99 100 100 100 100 98 97 96 95 95 98 87 73 68 67 80 67 78 93 94 92 89 100 100 100 100 100 100 100 100 100 99 77 85
89 87 86 89 91 90 88 90 89 88 87 89 88 92 87 87 85 85 100 100 100 98 98 96 96 97 100 100 100 99 89 84 75 66 60 58 77 73 72 72 60 85 99 99 100 98 100 100 100 99 96 92 75 69
90 88 87 87 91 92 89 84 82 84 86 85 85 89 86 87 83 88 96 100 100 96 96 100 100 100 100 100 100 94 85 83 76 71 71 73 70 71 74 59 75 80 79 90 93 87 82 76 85 78 69 66 74 75

GFSWCAN_925_rhum_147.txt.gz
RH
99 100 99 99 95 99 98 100 100 100 96 94 97 96 95 92 100 87 86 81 85 69 49 46 29 35 36 37 50 47 42 38 44 49 64 35 34 33 36 40 73 70 68 62 55 69 61 36 44 55 69 62 62 63
100 100 100 88 100 95 99 100 100 100 100 99 100 99 95 100 98 86 94 80 75 60 53 50 46 46 28 26 29 39 32 35 41 55 48 34 48 41 37 52 48 80 87 60 51 61 49 41 56 64 58 61 65 62
100 99 100 96 100 97 100 99 100 100 100 100 99 100 100 99 90 81 86 73 57 66 56 43 47 50 43 32 30 30 28 34 40 34 47 40 45 42 47 36 53 51 45 76 68 60 51 62 56 57 58 64 59 52
100 99 100 100 100 100 100 100 100 100 100 100 100 100 97 87 79 77 73 55 46 47 76 61 49 51 51 41 34 28 34 38 38 32 37 42 38 34 29 28 34 53 47 57 70 61 58 58 57 61 63 62 54 50
100 100 100 100 100 100 100 100 100 100 100 100 98 92 83 70 59 58 62 53 40 42 66 61 45 46 42 40 41 38 38 36 29 34 56 34 25 26 25 23 34 37 44 65 57 78 77 64 73 64 71 60 51 48
100 100 100 100 100 100 100 100 100 100 100 95 84 77 67 56 49 40 67 46 42 40 64 71 49 47 41 37 34 31 29 27 24 33 31 28 38 34 34 24 24 23 30 39 43 51 57 64 59 53 53 52 49 42
100 100 100 100 100 100 100 100 98 98 91 84 69 57 53 51 51 71 54 47 44 41 75 67 56 50 42 37 36 36 33 33 29 35 32 27 27 34 41 30 30 29 34 37 43 48 57 50 52 48 49 49 45 40
100 98 100 100 100 99 99 98 97 92 84 65 52 47 43 42 47 50 54 50 48 40 48 89 66 51 43 43 51 35 37 35 42 36 36 35 42 43 50 34 35 36 41 50 47 44 47 46 46 43 41 39 38 37
99 98 98 98 98 99 98 95 86 78 59 47 40 43 50 58 63 52 50 56 51 47 79 82 67 70 46 56 48 46 38 64 44 57 44 41 47 57 46 35 39 41 52 54 46 45 46 46 42 39 36 38 39 39
90 100 99 99 98 96 93 82 65 47 42 42 51 90 100 71 48 50 47 76 94 65 55 60 44 68 50 54 58 64 55 61 74 52 41 55 51 47 45 42 39 43 43 45 56 59 52 50 45 42 40 40 42 42
73 70 75 87 79 65 57 46 40 36 39 53 93 74 57 54 48 52 99 86 74 80 47 44 46 52 42 65 77 55 81 62 69 56 60 57 56 60 48 48 46 46 49 51 48 49 44 42 43 44 45 47 48 50
72 70 66 60 53 48 42 36 36 55 71 59 53 58 55 45 64 86 82 64 44 56 46 53 48 46 54 47 66 69 68 76 66 54 71 64 74 54 52 53 51 50 49 49 51 54 50 45 45 46 49 51 56 67
73 69 65 59 51 44 37 31 30 46 42 38 44 87 56 72 75 88 77 63 73 61 51 57 72 61 62 57 84 78 83 70 52 71 52 51 57 50 51 58 60 57 52 46 45 48 51 55 57 54 61 71 76 83
68 66 62 52 52 48 40 37 36 47 46 73 95 74 82 78 58 54 41 52 60 59 60 53 64 63 65 82 76 82 64 58 70 70 51 54 54 50 56 53 48 48 53 59 50 53 60 64 74 86 93 94 89 84
66 62 58 55 45 41 40 41 52 60 61 92 66 85 82 80 79 84 70 64 57 51 50 56 59 63 76 95 62 68 90 75 56 52 69 62 54 53 60 55 50 58 75 74 73 78 84 84 82 86 92 87 90 94
68 64 80 56 49 47 41 44 69 71 68 76 82 82 84 82 92 98 98 93 58 54 47 47 74 92 86 74 80 71 55 52 62 71 67 59 59 59 63 58 69 80 83 83 84 84 87 87 80 83 89 90 92 91
78 74 67 59 52 42 40 72 67 97 79 79 92 95 86 92 98 100 90 92 76 69 92 61 82 82 58 64 64 46 62 71 78 76 67 65 68 80 85 81 86 87 84 83 83 83 85 87 88 80 81 87 87 91
78 80 62 53 56 55 82 68 65 64 82 88 86 96 91 97 96 100 96 92 74 66 60 67 58 66 71 66 71 75 86 93 84 79 83 82 85 85 85 87 88 85 83 83 82 82 85 83 77 72 76 78 86 90
72 71 56 47 53 67 83 74 58 76 89 87 91 87 88 94 94 92 94 80 76 65 64 61 89 61 73 71 84 85 88 83 89 89 92 93 90 87 88 87 86 83 82 83 82 78 78 83 73 64 63 64 69 70
66 61 49 51 60 54 68 73 55 65 86 89 86 88 89 94 95 100 93 81 69 83 97 88 84 91 91 91 83 82 84 82 86 91 93 88 90 90 89 84 82 82 81 87 84 75 72 68 67 68 73 73 82 85
70 63 59 65 64 63 68 68 75 66 66 80 72 69 84 72 84 91 84 60 86 79 76 91 96 97 93 94 89 81 85 76 78 72 83 87 88 85 85 92 85 77 75 74 72 73 66 69 70 71 84 92 84 84
77 68 80 62 64 65 69 63 65 60 66 70 69 57 83 91 91 91 63 82 77 88 92 88 89 90 90 90 93 90 90 94 89 79 78 84 87 84 82 82 80 78 75 80 71 70 69 66 73 77 83 87 83 85
80 77 66 58 77 75 89 64 75 61 78 80 63 69 80 82 80 56 82 64 83 90 87 87 91 94 88 96 99 99 96 79 75 80 81 85 87 86 82 82 81 80 77 70 67 73 78 77 81 83 83 81 85 86
72 92 93 87 72 92 75 77 56 63 66 72 64 79 77 77 66 70 71 67 88 78 77 90 82 84 84 85 80 86 93 82 86 90 89 83 82 85 83 84 82 75 66 67 68 79 84 85 90 80 82 82 78 77
87 94 88 90 78 78 80 82 76 66 77 75 75 82 84 73 79 67 72 60 74 77 77 79 77 72 71 74 77 88 95 83 79 78 87 80 80 84 82 77 72 72 76 77 85 88 89 92 89 85 85 82 78 76
81 92 81 81 85 72 68 74 75 74 72 80 83 76 80 81 80 63 47 72 86 77 87 84 81 78 74 70 74 77 84 80 79 76 84 80 80 78 74 72 75 78 76 84 84 78 81 82 88 82 82 91 80 81
82 85 71 59 54 60 78 73 61 70 73 72 78 84 82 70 62 51 58 60 61 76 77 80 75 70 69 76 91 91 86 84 88 80 86 82 77 75 71 69 68 73 84 87 84 80 78 79 78 78 80 84 85 83
78 73 83 82 74 64 78 72 79 71 70 55 67 79 68 54 48 66 70 82 88 80 81 82 77 75 75 82 90 96 99 100 96 90 92 90 94 99 100 100 100 89 92 91 89 87 80 78 78 78 78 79 86 95
84 75 75 91 85 84 78 74 70 58 57 61 73 66 70 64 90 79 84 88 91 85 85 89 93 96 96 97 96 95 99 94 87 88 83 83 90 97 100 100 100 100 100 98 96 93 88 86 85 83 85 85 91 96
88 78 82 84 79 75 91 86 88 87 69 80 72 61 59 81 95 96 93 94 89 90 88 88 92 94 91 91 92 96 96 92 83 77 76 76 76 94 100 100 100 98 96 93 94 100 99 92 92 90 97 95 88 85
79 86 88 82 85 89 86 85 86 86 87 82 87 89 77 88 93 97 93 96 95 93 93 91 94 91 89 87 88 89 92 100 100 93 91 89 100 100 100 99 97 95 89 89 91 92 92 89 84 85 85 87 92 79
86 84 83 84 89 87 86 85 83 83 84 87 84 89 89 92 91 92 100 100 95 91 89 88 87 86 90 89 90 91 90 99 84 71 93 100 99 99 100 99 98 93 90 90 89 89 88 84 84 84 88 85 87 87
86 86 85 84 88 88 86 85 79 83 85 84 85 85 84 85 82 91 98 100 100 98 96 97 98 98 98 96 97 100 100 100 91 77 95 99 100 100 100 100 96 95 93 92 92 91 90 88 88 89 89 88 93 95

GFSWCAN_925_rhum_153.txt.gz
RH
74 76 82 98 100 99 100 96 92 90 84 82 83 84 86 74 63 79 87 85 96 96 87 81 69 86 76 64 79 65 62 58 63 73 79 66 75 60 66 60 70 76 81 88 83 84 77 41 46 57 75 73 75 75
79 88 100 100 100 100 100 100 100 98 96 89 85 82 79 77 72 79 96 90 79 94 96 95 69 60 58 45 58 52 61 56 75 83 87 85 72 68 64 86 56 74 76 82 74 79 75 73 79 74 69 76 73 73
97 100 100 100 100 100 100 98 99 99 99 94 89 76 84 75 70 85 85 93 94 98 100 91 88 56 53 51 33 64 57 45 47 59 76 70 56 58 81 87 73 59 74 89 72 65 75 78 69 69 74 77 64 61
100 100 100 100 100 100 100 100 98 94 99 97 94 88 91 81 84 86 85 86 90 95 99 95 64 52 41 41 33 31 39 39 48 66 71 79 78 49 57 68 77 76 70 83 80 65 70 70 73 73 73 64 54 50
100 100 100 100 100 100 99 98 95 96 97 99 97 94 86 85 86 92 82 81 77 93 99 98 72 54 45 38 37 32 48 57 68 70 88 77 48 52 43 54 85 56 68 87 90 75 79 85 80 72 74 63 52 49
100 100 100 99 100 100 100 100 99 94 98 98 97 91 90 87 96 94 100 84 81 70 97 99 86 57 41 40 48 54 58 54 57 62 64 59 49 62 78 46 40 45 52 57 77 74 78 74 67 62 62 60 48 46
100 100 100 99 96 99 100 100 99 97 96 95 96 93 88 96 88 94 93 91 78 78 96 100 99 60 43 45 55 56 49 59 60 67 62 54 43 64 71 53 37 40 54 60 61 65 73 63 72 57 52 45 41 40
100 100 99 100 100 100 100 100 98 97 92 94 93 94 94 88 80 76 79 72 70 56 79 98 94 68 43 62 63 56 68 72 69 60 62 66 57 66 75 42 37 48 50 58 58 56 59 55 51 50 45 40 45 48
100 100 99 100 100 100 100 97 95 98 97 96 91 89 93 84 93 84 76 75 56 59 91 95 93 88 54 59 70 75 72 87 70 89 66 71 66 77 53 43 53 56 59 59 55 53 52 53 48 46 44 46 49 50
100 100 100 100 100 100 99 99 98 96 96 98 97 98 100 94 83 73 62 93 98 89 84 82 71 88 70 77 91 92 94 92 95 78 56 87 82 52 49 48 53 56 56 54 64 64 58 59 56 52 50 53 55 60
100 100 100 100 100 100 100 100 100 100 92 78 99 94 87 76 70 89 100 98 96 89 75 68 60 72 65 88 95 82 94 89 87 76 81 88 93 64 57 61 60 61 61 60 57 56 50 58 59 60 61 63 70 75
100 100 100 100 100 100 100 98 93 79 67 65 65 70 68 79 98 86 92 83 70 75 69 74 70 74 74 78 92 87 86 94 86 71 87 91 89 63 65 66 64 60 56 62 63 64 63 64 63 63 68 76 82 86
100 100 100 98 98 96 91 78 58 48 49 49 71 90 88 91 95 76 98 88 87 79 70 69 80 85 82 86 97 94 86 89 73 91 83 89 70 62 64 63 65 63 64 64 61 64 75 77 69 74 82 84 90 94
85 90 91 86 70 63 58 54 49 45 38 94 89 88 90 89 87 99 81 81 82 69 68 69 94 90 96 95 96 79 89 80 82 92 87 88 68 66 66 67 68 70 69 69 69 73 76 81 84 71 81 89 84 85
68 61 52 47 48 56 46 46 43 38 74 87 80 94 94 96 98 98 97 75 64 64 75 87 90 90 96 92 89 88 78 85 84 86 95 84 72 73 77 73 76 81 83 84 81 86 87 86 92 94 91 85 86 94
48 49 72 46 36 29 27 25 45 62 81 89 93 96 99 99 98 86 79 80 74 87 81 86 96 95 93 90 88 80 82 83 94 98 86 78 78 78 77 76 83 90 90 90 83 84 87 86 88 91 80 76 85 88
38 62 58 63 41 39 28 51 59 86 94 89 98 99 99 98 98 99 100 100 95 92 97 96 85 82 90 88 78 94 91 96 91 90 89 80 81 92 88 88 91 95 94 89 89 84 87 92 85 88 89 90 81 76
70 54 38 40 42 48 56 55 80 83 92 98 97 99 98 99 100 99 100 100 92 93 86 74 83 72 85 82 99 100 99 97 94 96 97 94 92 91 87 91 94 93 94 93 87 90 90 78 89 94 89 78 98 87
61 56 48 49 52 62 87 76 70 94 98 99 99 100 100 100 97 98 100 95 93 94 92 92 90 96 99 99 94 96 96 96 95 99 98 93 94 94 95 94 96 94 95 93 96 92 78 83 86 75 74 76 77 85
56 53 51 48 46 70 78 86 61 87 97 98 96 98 100 100 98 100 98 93 95 98 95 88 97 96 99 100 96 90 94 92 92 97 98 98 97 96 96 94 95 94 90 83 84 85 88 76 74 70 70 75 87 70
51 56 53 54 61 66 87 92 90 92 94 98 100 100 99 97 95 97 96 96 94 99 82 99 99 99 97 98 94 91 88 81 84 86 92 98 98 96 97 98 96 91 92 96 96 80 75 72 72 74 66 79 85 89
73 61 57 54 79 78 90 79 86 83 92 97 100 94 95 90 96 95 90 93 91 98 99 95 98 96 94 95 100 80 85 84 86 88 89 95 96 96 97 97 94 96 95 92 81 82 83 90 75 79 91 90 80 87
57 60 67 66 83 83 89 73 82 76 90 91 91 84 93 95 92 81 94 99 96 90 81 84 86 88 90 89 86 80 76 72 93 91 94 92 93 93 99 94 90 96 96 92 90 78 89 78 76 78 94 77 84 88
54 91 92 94 86 98 88 84 82 85 89 86 84 86 91 94 90 91 92 95 96 90 92 86 84 86 84 84 84 82 81 87 94 94 93 97 96 99 96 95 93 91 87 90 91 89 82 78 83 87 73 85 85 92
79 90 89 92 88 87 88 86 83 86 88 81 86 90 92 93 89 86 86 97 98 97 97 87 80 97 96 97 89 85 94 93 95 97 99 94 98 100 98 99 98 93 88 86 99 87 84 82 72 77 85 81 84 75
95 91 84 84 89 83 84 88 83 85 88 89 92 93 94 90 79 76 86 97 88 92 91 90 86 90 89 86 96 89 79 93 91 94 99 96 90 91 95 95 97 98 91 83 91 83 91 92 79 91 89 89 87 80
90 91 81 64 73 79 90 89 85 88 84 91 95 96 90 80 76 91 93 96 97 86 78 75 71 70 94 95 85 84 88 96 96 91 98 99 97 91 87 92 93 84 88 89 81 80 87 88 84 92 88 82 75 73
82 79 86 91 90 90 85 87 86 81 83 89 90 89 80 74 92 100 96 86 84 81 79 80 78 83 89 93 91 92 91 95 97 94 96 97 98 98 97 91 80 77 78 88 89 92 85 74 84 81 81 93 90 80
87 87 89 94 90 90 89 89 89 97 97 90 88 89 94 97 99 95 86 85 83 81 82 89 98 97 99 98 93 92 94 95 94 97 98 100 100 98 97 95 94 89 84 82 86 91 91 79 80 78 82 88 90 87
77 90 88 88 93 94 98 98 98 91 95 96 94 88 95 89 92 89 90 88 85 83 82 83 87 89 93 96 99 99 90 92 87 82 93 94 88 92 90 95 96 90 85 85 86 86 85 82 84 87 94 92 87 92
86 85 88 88 91 97 94 82 81 80 86 91 92 96 99 97 94 89 87 94 86 84 89 99 95 86 89 90 94 96 98 89 92 96 90 85 86 81 84 90 93 90 88 86 87 89 88 88 89 83 78 91 94 82
82 90 96 95 97 92 80 96 84 78 78 82 93 83 95 85 86 98 94 93 91 94 93 97 98 96 87 90 87 88 80 89 97 95 90 90 99 94 88 91 93 90 92 91 83 79 80 79 91 95 93 92 85 84
94 92 93 91 93 89 90 80 89 86 79 81 85 85 84 93 95 98 94 95 96 98 98 97 99 96 97 99 98 98 93 87 92 96 96 94 94 94 95 96 94 97 98 94 85 93 86 95 96 95 90 90 84 81

GFSWCAN_925_rhum_159.txt.gz
RH
84 84 84 80 78 82 84 82 80 75 75 83 79 80 79 75 87 98 97 91 93 98 86 82 88 97 96 72 89 86 90 93 100 99 97 96 89 74 71 66 76 78 85 90 89 92 87 50 41 52 70 85 81 80
81 82 83 81 80 77 77 79 84 82 78 78 83 83 78 76 86 100 99 86 97 97 93 94 90 88 91 92 97 78 75 90 93 94 93 84 79 79 72 83 63 69 78 83 75 80 70 77 58 78 77 83 82 81
77 75 78 81 84 82 83 84 84 85 83 82 82 81 85 84 88 98 99 100 96 98 92 98 89 74 94 99 99 98 84 69 71 65 81 79 62 73 84 85 69 68 67 88 80 84 88 89 82 77 72 78 77 73
83 81 80 82 83 83 82 83 84 85 90 93 94 81 88 84 85 94 100 95 78 93 100 90 93 89 88 98 100 87 64 63 67 68 78 78 76 62 80 72 70 80 71 83 97 94 84 82 79 79 75 68 62 58
79 80 80 80 81 83 84 85 86 87 86 94 95 93 87 84 84 95 99 89 80 90 100 98 93 93 90 99 76 63 64 67 66 69 85 77 61 60 68 72 88 78 75 86 91 86 82 85 84 72 67 65 58 58
81 82 83 83 84 84 86 91 94 92 99 100 98 90 88 85 80 97 100 90 95 85 100 99 98 97 98 90 81 66 64 77 72 74 78 72 60 58 74 62 50 62 65 62 71 76 79 80 76 67 68 58 55 59
100 100 100 99 97 92 93 95 98 99 99 100 93 92 89 80 89 97 87 77 83 85 99 99 99 98 94 69 76 70 67 72 64 74 69 56 58 71 75 60 68 74 80 77 74 75 82 74 82 58 57 57 58 64
100 100 100 100 100 100 100 100 99 99 90 95 94 93 85 76 96 91 91 100 90 92 97 99 98 100 79 72 68 76 70 72 80 73 65 60 70 72 72 68 83 79 76 74 73 72 73 69 56 56 58 59 62 65
100 100 100 100 100 100 100 100 99 99 94 96 90 87 88 96 99 85 96 98 84 92 99 99 95 98 62 78 76 76 75 88 80 86 63 69 75 66 64 83 83 77 75 78 76 68 63 60 56 57 58 60 62 65
100 100 100 100 100 100 99 98 99 98 93 91 94 97 100 93 92 82 98 98 97 93 90 92 83 88 74 86 94 91 93 92 83 78 78 90 88 67 63 66 69 72 68 66 77 77 68 64 61 61 59 61 60 64
96 98 98 99 99 96 94 90 99 100 99 86 100 100 100 93 87 99 99 99 99 99 90 80 75 81 78 84 94 87 93 91 86 77 83 94 91 75 71 74 74 67 63 63 62 62 57 58 62 66 69 70 71 72
90 90 100 99 99 100 100 100 99 84 78 88 96 91 84 97 100 98 99 96 91 92 83 77 72 86 87 79 87 89 89 91 83 83 86 98 87 85 81 81 79 77 73 67 58 63 60 59 62 67 73 76 75 77
85 80 90 97 99 98 100 96 72 74 85 72 78 95 91 98 95 87 99 98 97 86 88 85 85 84 81 88 96 90 90 94 77 89 80 82 90 82 80 79 78 74 71 69 69 67 68 73 71 71 78 81 77 75
88 93 96 96 98 98 83 70 70 65 68 84 83 96 84 95 88 78 80 84 84 84 71 71 96 87 97 91 96 80 89 81 91 98 86 95 86 80 77 73 72 77 78 79 75 72 73 78 86 81 78 73 72 85
93 96 98 96 86 78 78 77 74 55 69 87 77 84 94 90 99 98 98 89 78 67 73 88 88 89 98 95 91 86 89 93 87 87 91 92 81 78 80 75 77 80 87 88 85 88 90 89 90 93 82 75 73 88
92 87 84 86 90 82 55 52 52 60 86 88 92 96 98 97 97 96 90 85 79 85 86 84 94 91 98 92 90 88 90 92 86 94 98 85 81 80 80 77 83 85 88 89 84 86 89 90 91 89 82 72 72 72
81 77 61 47 40 42 36 47 58 87 94 90 98 99 99 99 99 99 84 94 99 82 95 90 83 61 90 96 97 89 89 90 98 100 90 80 80 87 89 90 90 88 88 87 87 84 84 84 88 93 98 87 79 71
79 62 52 41 37 44 52 58 85 87 95 98 97 99 99 99 99 100 100 100 90 94 87 75 86 81 94 90 94 93 99 99 100 100 98 92 90 89 84 88 88 85 86 85 82 87 92 93 92 90 84 88 81 74
63 55 58 52 49 55 85 83 76 96 98 98 99 98 99 99 98 99 99 98 98 96 91 92 97 94 88 98 94 85 99 92 98 100 100 99 90 90 91 89 88 87 87 85 86 90 91 82 73 69 77 86 90 88
39 37 42 40 42 71 80 90 72 87 97 98 99 99 100 99 99 96 90 92 92 93 96 97 100 99 100 99 98 95 93 89 94 98 99 100 98 93 92 89 92 89 89 87 89 88 91 87 79 71 74 72 76 78
46 49 43 49 60 70 92 97 94 95 98 98 99 97 94 93 93 93 96 95 94 99 99 98 99 99 99 98 92 93 94 94 98 96 96 99 99 98 100 97 93 94 93 97 100 98 91 86 80 91 87 73 73 77
49 52 48 54 78 77 84 86 92 94 95 99 94 95 98 96 94 92 95 94 99 99 99 98 99 99 95 98 97 88 86 85 90 94 93 95 96 97 98 100 98 97 97 96 93 94 87 71 83 92 89 77 80 88
45 46 58 62 75 75 78 81 81 85 87 93 92 87 95 92 91 89 99 95 98 99 98 98 97 94 94 88 84 86 84 87 97 99 99 97 96 95 98 100 95 96 97 97 86 84 81 81 86 86 84 86 94 96
53 77 91 92 81 93 86 86 91 89 91 90 90 96 93 91 89 95 96 100 97 96 95 97 93 96 93 88 93 97 97 93 97 98 97 97 98 100 96 96 94 90 85 81 90 88 92 93 81 79 80 85 88 87
67 78 83 88 88 87 90 91 90 86 94 94 93 94 88 94 92 93 96 95 98 96 97 93 94 98 98 95 94 90 86 86 94 98 99 86 91 100 100 99 97 94 94 94 99 97 95 94 94 94 94 92 88 91
88 87 80 93 90 83 90 91 93 94 95 97 94 97 96 91 76 75 96 98 99 97 98 96 98 100 99 94 97 98 86 74 85 91 96 93 85 89 94 97 99 99 98 95 92 96 97 97 96 96 96 88 82 90
93 91 89 78 87 81 89 94 85 90 94 91 97 99 87 76 81 89 99 100 98 92 82 82 82 88 90 95 84 78 74 77 78 86 95 98 97 90 84 89 96 84 86 96 97 94 94 95 95 95 93 85 88 85
90 89 84 90 93 92 93 96 92 86 92 93 89 86 67 68 83 96 96 98 92 84 82 82 78 73 79 84 85 92 97 97 99 100 100 100 100 100 98 93 93 86 83 89 97 97 96 95 94 94 90 91 91 93
96 94 90 95 96 100 95 95 99 92 94 94 90 100 95 98 99 99 97 93 87 82 100 100 100 95 96 99 100 95 88 98 98 96 96 100 100 94 96 96 95 87 88 94 98 97 96 95 91 82 81 90 96 92
94 96 95 100 99 91 98 98 97 98 96 97 97 96 96 98 98 99 93 89 86 91 92 88 90 93 98 95 96 97 96 95 93 92 96 99 93 81 81 94 97 92 93 96 96 99 98 97 96 94 97 97 96 96
93 83 89 98 99 98 98 96 94 95 95 98 96 95 96 98 97 97 96 94 91 88 88 95 93 86 90 89 89 90 89 85 88 90 96 90 86 87 82 90 98 97 97 96 96 95 95 97 95 96 98 97 97 95
90 86 99 97 97 97 94 96 97 100 100 96 97 97 98 97 98 97 95 94 95 98 99 97 94 94 86 81 78 79 80 78 81 80 92 96 93 91 91 89 97 97 96 96 96 96 96 93 95 97 97 97 97 98
98 100 99 98 96 96 90 94 80 83 79 90 99 100 91 90 90 96 98 97 97 96 96 96 95 96 97 98 97 96 95 95 96 88 89 92 92 96 98 96 96 96 96 95 96 96 96 96 96 96 96 95 94 92

GFSWCAN_925_rhum_165.txt.gz
RH
96 96 96 87 88 92 74 75 87 89 88 89 90 80 71 70 69 91 89 93 97 100 86 78 84 99 98 100 96 93 88 96 97 98 90 93 88 77 73 62 84 88 91 92 95 94 87 47 44 48 56 75 68 68
95 96 92 84 90 76 75 90 89 84 78 87 82 72 70 69 65 80 87 88 95 99 86 80 69 62 60 69 89 96 100 96 83 95 92 86 96 91 79 82 62 78 83 83 80 75 62 66 54 67 67 69 72 71
94 90 84 86 92 75 75 74 75 80 68 67 79 79 70 74 72 82 93 99 99 100 95 93 83 66 70 72 69 96 95 86 91 88 90 83 88 74 92 91 68 66 66 88 77 75 69 79 75 70 68 70 69 67
92 83 82 86 92 84 79 76 73 77 74 66 67 78 71 75 77 87 90 90 87 96 98 85 82 77 63 69 82 80 69 76 79 93 100 96 86 61 63 60 67 74 69 80 80 87 82 79 74 74 75 72 67 58
86 80 78 85 84 75 74 78 83 79 82 85 77 85 88 84 79 90 87 77 80 94 98 95 91 83 74 81 91 92 85 86 96 99 99 93 77 67 72 69 74 65 67 77 77 78 74 72 80 73 70 66 60 59
86 81 81 85 84 83 82 82 79 73 75 89 83 88 90 91 87 87 98 76 87 87 100 98 81 94 97 99 97 96 94 95 98 98 100 92 62 75 90 80 55 57 60 59 58 70 75 76 72 62 63 62 58 56
86 85 84 85 82 80 81 81 73 72 77 82 90 91 91 86 93 86 87 99 100 99 100 99 96 92 92 91 94 94 95 99 96 98 98 90 66 63 72 63 52 62 62 72 70 70 77 66 68 60 59 61 62 60
90 86 84 83 85 84 84 81 83 83 87 87 90 85 86 83 92 93 63 94 99 98 100 99 94 99 98 100 100 100 100 100 100 100 98 97 92 86 68 58 75 78 78 75 68 68 63 64 60 62 62 59 60 63
89 90 88 83 83 85 80 81 86 86 83 91 93 92 97 99 94 78 70 63 77 99 99 98 96 94 100 100 100 100 100 98 97 92 88 92 96 90 52 81 84 80 75 79 70 65 62 62 62 61 57 56 59 65
100 91 81 80 86 82 86 86 86 82 84 86 98 100 97 93 74 73 97 100 100 99 100 97 100 96 100 100 97 97 90 89 94 73 72 74 58 59 66 71 73 75 72 66 74 75 68 66 62 60 57 54 55 60
100 100 100 99 89 84 86 85 86 86 91 100 100 96 85 80 92 98 100 99 99 99 98 91 94 97 99 95 92 90 90 86 79 71 74 70 66 62 81 79 76 71 65 62 56 59 56 58 59 58 58 57 59 61
89 98 100 100 100 94 87 91 85 97 97 86 87 86 89 96 99 97 98 93 94 86 89 91 98 99 86 83 85 85 83 82 65 74 78 78 74 71 83 80 79 73 71 69 62 62 60 57 55 55 55 58 60 65
98 99 100 100 100 99 96 95 98 83 83 84 89 96 93 95 96 97 96 92 95 88 87 90 94 82 78 77 86 84 85 91 79 80 65 62 72 83 81 79 78 70 69 67 64 61 60 61 61 59 61 67 75 78
100 100 100 100 100 100 98 98 93 75 72 94 93 100 96 96 90 86 79 77 82 85 86 82 90 82 89 86 91 81 91 81 86 88 74 72 79 83 77 74 70 70 73 76 66 64 66 68 78 73 76 72 72 82
99 100 100 100 99 96 96 83 71 65 71 85 84 83 98 85 93 90 90 92 86 84 79 83 82 83 88 89 87 86 88 93 83 81 79 82 82 79 78 74 71 74 83 84 82 84 86 85 84 89 76 71 68 73
98 97 100 97 90 81 66 74 66 83 89 89 92 94 94 92 87 96 97 92 88 84 77 78 80 83 78 86 84 86 85 84 76 84 90 88 83 80 79 76 82 85 86 88 86 86 87 85 86 88 81 74 71 68
80 85 83 83 79 71 62 55 62 88 91 92 97 97 99 98 80 94 99 92 92 83 84 81 73 72 82 86 80 78 88 81 94 95 92 85 83 88 91 91 92 88 89 89 88 87 87 82 83 90 89 85 72 70
90 79 72 74 76 70 58 58 88 87 96 96 97 98 99 100 96 97 98 99 88 88 83 74 83 85 86 78 86 90 91 96 95 95 97 93 89 90 85 88 91 88 89 91 89 92 94 92 87 82 88 88 85 84
67 70 72 61 71 58 84 80 80 96 96 97 98 98 98 98 95 96 96 91 90 89 86 85 88 90 93 93 91 76 94 94 97 95 96 97 92 92 92 92 91 91 91 92 91 87 88 87 84 84 86 89 84 92
48 48 50 54 57 68 76 89 79 87 95 97 96 98 98 98 97 94 90 88 83 84 87 94 94 96 97 92 98 97 96 92 92 99 100 100 94 91 89 85 85 91 91 94 95 93 92 91 90 88 87 88 87 88
45 47 53 55 62 74 90 94 92 96 96 95 97 95 97 91 96 96 92 86 89 99 97 94 93 98 98 97 96 93 94 89 92 89 94 100 99 90 92 93 92 87 85 87 86 92 89 83 88 89 83 88 77 68
44 41 44 55 76 76 84 90 91 94 95 98 94 90 88 85 95 95 88 92 99 92 92 96 96 97 97 98 96 94 95 96 99 97 97 96 96 92 92 92 86 88 87 88 84 86 86 79 74 72 74 74 73 70
35 38 50 61 72 76 84 85 84 85 93 96 88 77 82 87 89 86 95 88 96 94 96 97 97 97 97 97 95 97 95 98 93 94 94 94 95 94 93 94 87 88 88 88 81 80 82 75 75 73 75 74 77 81
50 77 90 89 79 86 82 88 87 84 85 86 83 88 86 87 88 91 89 93 95 95 96 96 92 96 97 96 97 98 97 100 98 98 96 94 93 99 94 92 92 90 82 85 88 89 90 89 87 86 92 96 96 98
63 74 81 88 86 83 89 92 90 85 95 96 81 79 87 90 88 92 82 87 97 96 96 95 94 91 92 95 97 100 98 92 96 97 100 92 99 100 100 99 93 90 93 96 100 97 96 94 89 87 96 100 99 99
79 86 78 94 93 76 85 89 95 90 96 99 90 90 94 87 76 58 77 93 94 95 96 94 93 94 92 88 91 91 93 88 86 95 98 87 83 91 96 98 98 97 97 96 93 98 98 98 98 97 98 97 96 96
93 97 89 82 91 86 90 93 86 91 94 83 95 99 88 73 65 68 90 95 91 92 87 86 87 89 91 94 94 92 92 84 75 84 92 95 91 86 81 90 95 83 84 90 97 96 94 96 98 98 100 99 96 95
96 95 100 95 97 93 90 96 96 93 93 93 92 92 77 63 59 92 98 100 100 97 92 88 80 79 83 87 92 100 100 99 100 100 100 98 98 97 96 97 96 92 91 91 95 99 98 96 96 96 96 96 95 96
86 94 91 97 100 91 90 90 87 90 94 94 92 86 92 94 96 95 98 100 100 100 100 100 100 100 100 100 100 100 100 100 98 96 92 92 100 93 98 99 99 95 86 88 98 100 99 97 97 96 96 96 96 96
91 96 99 99 100 99 89 96 96 96 96 95 94 93 91 94 97 98 98 99 100 98 100 100 100 100 100 100 100 100 100 99 95 90 97 98 93 85 84 92 97 96 95 99 100 99 96 94 96 97 96 96 96 97
95 96 95 100 96 95 96 96 95 96 97 96 96 96 92 95 95 96 97 98 99 100 100 100 100 100 100 99 96 95 96 86 85 86 86 85 85 86 87 86 95 99 99 97 97 94 94 96 96 96 96 96 97 96
100 100 100 100 96 94 100 95 95 94 94 96 96 96 96 96 91 96 96 96 98 99 99 95 98 100 82 76 77 76 76 78 81 83 85 89 92 91 88 87 93 99 98 98 97 96 97 95 95 96 96 96 96 97
99 98 95 95 92 94 92 98 77 85 95 98 98 96 94 92 92 96 97 96 97 98 98 96 92 90 90 87 86 87 91 92 92 91 88 90 95 95 94 91 93 97 98 97 96 96 96 96 96 96 96 96 96 97